DELTA 1 DEB, 7044

Orbit data source: Space-Track

DELTA 1 DEB, 7044 is space debris in SSO originally from a launch on Tue, 06 Nov 1973 UTC launched from the Air Force Western Test Range (AFWTR). Debris objects in space refer to the collection of defunct objects orbiting the Earth. Examples of debris include non-operational satellites, rocket bodies, and fragments generated from explosions, collisions, or faulty payload assembly.

Loading next visibility...
Identifier
7044, 1973-086AL
Orbit
SSO
Country
Flag of USUS
Related business
Manufacturer
Unknown
Mission
Spacecraft
Bus & Motor
Unknown
Mass
Unknown
Launch date (UTC)
1973-11-06 (52 years ago)
Launch vehicle
Unknown
Launch site
Air Force Western Test Range (AFWTR)
Object type
Payload
Rocket body
Debris
Shape & HBR
Unknown
Radar Cross Section
0.210 m², Medium (>0.1 m² and < 1m²)

Expand to show TLE details & history
Last TLE update: 10 hours ago

TLE from 10 hours ago
0 DELTA 1 DEB
1 07044U 73086AL  25259.46950529 -.00000027  00000-0  14495-3 0  9998
2 07044 102.5365 117.1674 0089923  33.1799  83.7828 12.44516557355211
Epoch: 2025-09-16T11:16Z
TLE epoch observation values (Epoch: 2025-09-16T11:16:05.257Z)
Latitude
59.6331°
Longitude
154.67447°
Altitude
1,490.387 km
Speed
7.127 km/s
True Right ascension
21h 17m 25s
True Declination
59° 29' 49"
Sunlit
Object was in daylight at epoch
Visualization orbit readout
Latitude
Unknown
Longitude
Unknown
Altitude
Unknown
Speed
Unknown
Apparent Right ascension
Unknown
Apparent Declination
Unknown
Sunlit
N/A
Visualization observer readout
Local Sidereal Time
14:28:30
Azimuth
Unknown
Elevation
Unknown
Doppler factor
Unknown
Orbital elements
Apogee altitude
1,555.825 km
Perigee altitude
1,414.407 km
Semi-major axis
7,863.253 km
Eccentricity
0.00899
Inclination
102.5365°
RAAN
117.1674°
Arg. of periapsis
33.1799°
True anomaly
84.80837°
Mean anomaly
83.7828°
Eccentric anomaly
84.29547°
Mean motion
3.11272 °/min
Orbital period
115.65 mins
BSTAR
0.00014495
Loading maneuver chart data...
Computing Atmospheric mass density...
Loading historical data...
Loading historical data...
Loading historical data...
Loading historical data...
Loading historical data...
Loading historical data...
Loading historical data...

Documentation

Showing up to 5 results
|